Location: Unspecified
(0.0000°N, 0.0000°E)
Time: 19:15:21
(UTC+00:00)

THORAD DELTA 1 DEB - Pass Details

Date: 17 February 2026
Orbit: 1451 x 1738 km, 101.5° (Epoch: 9 March)

Event Time Altitude Azimuth Distance (km) Brightness Sun altitude
Rises 21:40:17 0° 190° (S) 4,726 ? -50.1°
Reaches altitude 10° 21:43:50 10° 202° (SSW) 3,699 ? -50.9°
Maximum altitude 21:50:24 25° 252° (WSW) 2,654 ? -52.5°
Drops below altitude 10° 21:56:49 10° 304° (WNW) 3,581 ? -54.0°
Sets 22:00:14 0° 317° (NW) 4,545 ? -54.8°
